EA1EME-3 Weather Reports


time (UTC)temp
F
wind
direction
speed
knots
gust
knots
rain 1hr
in
rain 24hr
in
rain mn
in
humidity
%
barometer
mb
20260905201502 71 0.0 0.0 0.00 0.00 0.00 76 1021.0
20260905195500 72 0.0 0.0 0.00 0.00 0.00 71 1021.0
20260905193458 71 0.0 0.0 0.00 0.00 0.00 71 1020.0
20260905191457 71 0.0 0.0 0.00 0.00 0.00 71 1020.0
20260905185454 74 0.0 0.0 0.00 0.00 0.00 66 1018.0
20260905183452 75 0.0 0.0 0.00 0.00 0.00 65 1018.0
20260905181450 75 0.0 0.0 0.00 0.00 0.00 65 1018.0
20260905175449 76 0.0 0.0 0.00 0.00 0.00 65 1018.0
20260905173447 76 0.0 0.0 0.00 0.00 0.00 65 1018.0
20260905171445 77 0.0 0.0 0.00 0.00 0.00 63 1018.0
20260905165443 77 0.0 0.0 0.00 0.00 0.00 63 1018.0
20260905163441 79 0.0 0.0 0.00 0.00 0.00 61 1018.0
20260905161439 80 0.0 0.0 0.00 0.00 0.00 59 1018.0
20260905155437 82 0.0 0.0 0.00 0.00 0.00 56 1018.0
20260905153435 81 0.0 0.0 0.00 0.00 0.00 57 1018.0
20260905151433 80 0.0 0.0 0.00 0.00 0.00 59 1018.0
20260905145431 78 0.0 0.0 0.00 0.00 0.00 61 1019.0
20260905143430 79 0.0 0.0 0.00 0.00 0.00 60 1019.0
20260905141427 81 0.0 0.0 0.00 0.00 0.00 58 1019.0
20260905135425 81 0.0 0.0 0.00 0.00 0.00 58 1019.0
20260905133423 79 0.0 0.0 0.00 0.00 0.00 60 1019.0
20260905131422 77 0.0 0.0 0.00 0.00 0.00 63 1019.0
20260905125419 77 0.0 0.0 0.00 0.00 0.00 64 1019.0
20260905123418 75 0.0 0.0 0.00 0.00 0.00 65 1019.0
20260905121416 75 0.0 0.0 0.00 0.00 0.00 66 1019.0
20260905115414 74 0.0 0.0 0.00 0.00 0.00 66 1020.0
20260905113412 74 0.0 0.0 0.00 0.00 0.00 66 1020.0
20260905111410 75 0.0 0.0 0.00 0.00 0.00 65 1020.0
20260905105408 75 0.0 0.0 0.00 0.00 0.00 64 1021.0
20260905103406 74 0.0 0.0 0.00 0.00 0.00 65 1021.0
20260905101404 74 0.0 0.0 0.00 0.00 0.00 66 1021.0
20260905095402 74 0.0 0.0 0.00 0.00 0.00 66 1022.0
20260905093400 73 0.0 0.0 0.00 0.00 0.00 68 1022.0
20260905091358 73 0.0 0.0 0.00 0.00 0.00 69 1022.0
20260905085356 72 0.0 0.0 0.00 0.00 0.00 69 1022.0
20260905083355 72 0.0 0.0 0.00 0.00 0.00 70 1022.0
20260905081353 71 0.0 0.0 0.00 0.00 0.00 71 1022.0
20260905075351 72 0.0 0.0 0.00 0.00 0.00 70 1022.0
20260905073349 71 0.0 0.0 0.00 0.00 0.00 72 1022.0
20260905071347 71 0.0 0.0 0.00 0.00 0.00 72 1022.0
20260905065344 71 0.0 0.0 0.00 0.00 0.00 72 1022.0
20260905063342 71 0.0 0.0 0.00 0.00 0.00 71 1022.0
20260905061341 71 0.0 0.0 0.00 0.00 0.00 71 1022.0
20260905055339 71 0.0 0.0 0.00 0.00 0.00 72 1021.0
20260905053337 71 0.0 0.0 0.00 0.00 0.00 73 1021.0
20260905051335 71 0.0 0.0 0.00 0.00 0.00 72 1021.0
20260905045333 71 0.0 0.0 0.00 0.00 0.00 72 1022.0
20260905043331 71 0.0 0.0 0.00 0.00 0.00 72 1022.0
20260905041329 70 0.0 0.0 0.00 0.00 0.00 73 1022.0
20260905035328 71 0.0 0.0 0.00 0.00 0.00 71 1022.0
20260905033325 71 0.0 0.0 0.00 0.00 0.00 72 1022.0
20260905031323 71 0.0 0.0 0.00 0.00 0.00 71 1022.0
20260905025321 71 0.0 0.0 0.00 0.00 0.00 72 1022.0
20260905023319 71 0.0 0.0 0.00 0.00 0.00 71 1022.0
20260905021317 71 0.0 0.0 0.00 0.00 0.00 71 1022.0
20260905015315 71 0.0 0.0 0.00 0.00 0.00 71 1022.0
20260905013315 71 0.0 0.0 0.00 0.00 0.00 70 1022.0
20260905011311 71 0.0 0.0 0.00 0.00 0.00 71 1023.0
20260905005309 72 0.0 0.0 0.00 0.00 0.00 70 1023.0
20260905003307 71 0.0 0.0 0.00 0.00 0.00 71 1023.0
20260905001305 72 0.0 0.0 0.00 0.00 0.00 70 1023.0
20260904235306 71 0.0 0.0 0.00 0.00 0.00 71 1023.0
20260904233301 71 0.0 0.0 0.00 0.00 0.00 71 1023.0
20260904231259 71 0.0 0.0 0.00 0.00 0.00 70 1023.0
20260904225257 71 0.0 0.0 0.00 0.00 0.00 69 1023.0
20260904223255 72 0.0 0.0 0.00 0.00 0.00 68 1023.0
20260904221253 71 0.0 0.0 0.00 0.00 0.00 69 1023.0
20260904215251 71 0.0 0.0 0.00 0.00 0.00 70 1023.0
20260904213249 70 0.0 0.0 0.00 0.00 0.00 72 1023.0
20260904211248 71 0.0 0.0 0.00 0.00 0.00 70 1023.0
20260904205245 72 0.0 0.0 0.00 0.00 0.00 68 1024.0
20260904203244 72 0.0 0.0 0.00 0.00 0.00 69 1023.0